Location: Heisede
(52.2582°N, 9.8523°E)
Time: 13:59:15
(UTC+00:00)

ATLAS 2AS CENTAUR R/B - Visible Passes

Search period start: 19 April 2026 00:00
Search period end: 29 April 2026 00:00
Orbit: 1052 x 1159 km, 63.7° (Epoch: 19 April)

Date Brightness Start Highest point End Pass type
(mag) Time Alt. Az. Time Alt. Az. Time Alt. Az.
19 Apr 2.6 00:34:46 46° SW 00:37:05 83° NW 00:43:57 10° NE visible
19 Apr 3.8 02:22:28 10° W 02:28:50 38° NNW 02:35:07 10° NE visible
19 Apr 4.2 22:03:19 19° E 22:03:19 19° E 22:06:47 10° ENE visible
19 Apr 2.6 23:50:42 58° S 23:52:02 73° SE 23:58:51 10° NE visible
20 Apr 3.5 01:38:05 16° W 01:43:23 45° NNW 01:49:54 10° NE visible
20 Apr 4.2 03:29:50 10° WNW 03:35:52 32° N 03:41:51 10° ENE visible
20 Apr 4.6 21:19:12 11° E 21:19:12 11° E 21:20:01 10° E visible
20 Apr 2.8 23:06:34 51° SE 23:07:06 52° SE 23:13:41 10° NE visible
21 Apr 3.2 00:53:57 25° WSW 00:58:03 56° NNW 01:04:45 10° NE visible
21 Apr 4.1 02:44:12 10° WNW 02:50:17 32° N 02:56:19 10° NE visible
21 Apr 3.3 22:22:23 36° ESE 22:22:23 36° ESE 22:28:24 10° NE visible
22 Apr 2.8 00:09:46 36° WSW 00:12:49 72° NW 00:19:39 10° NE visible
22 Apr 4.0 01:58:31 10° W 02:04:45 35° NNW 02:10:56 10° NE visible
22 Apr 3.8 21:38:07 24° ESE 21:38:07 24° ESE 21:42:54 10° ENE visible
22 Apr 2.6 23:25:29 47° SW 23:27:41 86° SE 23:34:34 10° NE visible
23 Apr 3.7 01:12:51 10° W 01:19:16 40° NNW 01:25:39 10° NE visible
23 Apr 4.3 03:05:47 10° WNW 03:11:50 32° N 03:17:50 10° ENE visible
23 Apr 4.2 20:53:46 16° E 20:53:46 16° E 20:56:52 10° ENE visible
23 Apr 2.7 22:41:07 50° S 22:42:42 63° SE 22:49:26 10° NE visible
24 Apr 3.4 00:28:27 16° W 00:33:53 49° NNW 00:40:28 10° NE visible
24 Apr 4.2 02:20:13 10° WNW 02:26:16 32° N 02:32:15 10° ENE visible
24 Apr 3.0 21:56:37 41° SSE 21:57:48 44° ESE 22:04:14 10° NE visible
24 Apr 3.0 23:43:57 22° WSW 23:48:35 62° NW 23:55:21 10° NE visible
25 Apr 4.1 01:34:33 10° WNW 01:40:42 33° N 01:46:47 10° NE visible
25 Apr 3.4 21:11:56 29° SE 21:13:03 31° ESE 21:18:51 10° ENE visible
25 Apr 2.7 22:59:15 27° SW 23:03:24 81° NW 23:10:15 10° NE visible
26 Apr 4.0 00:48:51 10° W 00:55:10 37° NNW 01:01:27 10° NE visible
26 Apr 4.3 02:41:43 10° NW 02:47:48 33° N 02:53:50 10° ENE visible
26 Apr 3.8 20:27:00 19° SE 20:28:25 20° ESE 20:33:11 10° ENE visible
26 Apr 2.6 22:14:18 27° SSW 22:18:19 76° SE 22:25:09 10° NE visible
27 Apr 3.7 00:03:10 10° W 00:09:44 44° NNW 00:16:13 10° NE visible
27 Apr 4.3 01:56:12 10° WNW 02:02:13 32° N 02:08:12 10° ENE visible
27 Apr 4.3 19:41:37 11° SE 19:43:54 13° ESE 19:46:39 10° E visible
27 Apr 2.8 21:28:52 22° SSW 21:33:22 54° SE 21:40:00 10° NE visible
27 Apr 3.3 23:17:36 10° WSW 23:24:23 54° NNW 23:31:04 10° NE visible
28 Apr 4.3 01:10:34 10° WNW 01:16:39 32° N 01:22:41 10° NE visible
28 Apr 4.1 03:02:54 10° NW 03:09:14 39° NNE 03:15:32 10° E visible
28 Apr 3.2 20:42:24 11° S 20:48:33 38° ESE 20:54:44 10° NE visible
28 Apr 2.9 22:32:12 10° WSW 22:39:08 70° NW 22:45:57 10° NE visible
